Timeline UpdatesTrip UpdatesNews PostsPvt PostsTravel TipsAdmin PostsConv PostsFollowed PostsChat RequestsBlog PostsPNR Posts

Disclaimer
Search
 
 
Tue Sep 23, 2014 11:51:32 ISTHomeTrainsΣChainsAtlasPNRForumGalleryNewsFAQTripsMembersLoginFeedback
No Recent News for this Train
Other Trains in the News **new
Latest...
Discontinued from 1/9/14 #1193229
Thu Aug 21, 2014 (09:08PM)
⇐ Return Journey: Train# 13039

13040/Delhi-Howrah Janta Express (UnReserved)

TRAIN IS CANCELLED
Change Departure Station:
Change Arrival Station:
Post a Train Travel TipPost a Train Travel Tip **new
Post a Comment/Question/Picture/VideoPost a Comment/Question/Picture/Video
Inaugural Run
Tue Oct 01, 1946
Pantry/Catering
✕ NO Pantry Car
✕ NO Catering
RSA - Rake Sharing
Rake/Coach Composition
All coaches having Unreserved.
Loco
HWH WAP-4
Train will Run till Aug 31 (subject to further announcements)
News    PNR    Forum    Time-Table    Availability    Fare Chart    Map    Arr/Dep History    Trips    Gallery    ΣChains    X/O    Timeline    
Travel Time: 25h 52m    75 halts    Distance: 996 km    Avg Speed: 38 km/hr
Type: Mail/Express
Zone: ER/Eastern
Departs @ 15:35 (Avg 4h 22m late)
Platform# 10
SMTWTFS
Old Delhi Junction/DLI 
Arrives @ 17:27 +1 night (Avg 6h 36m late)
Platform# ???
SMTWTFS
Rajendra Nagar Bihar/RJPB 

75 halts. 160 intermediate Stations between Old Delhi Junction and Rajendra Nagar Bihar

Show ALL intermediate Stations  

#CodeStation NameX/OArrivesAvgDepartsAvgHaltPFDay#KmSpeedElevZoneAddress
1DLIOld Delhi Junction (16)»  -15:35+4:221010.029219mNRNear Chandni Chowk Metro Station, Delhi NCT
2DSAShahdara Junction (4)  15:48+6:1415:50+6:182m216.352212mNRCircular Rd, Delhi NCT
3SBBSahibabad Junction (5)  15:58-16:00-2m1113.245209mNRGhaziabad, Uttar Pradesh
4GZBGhaziabad Junction (6)  16:09+5:2416:11+5:382m2119.946217mNRGhaziabad, Uttar Pradesh
5MIUMaripat (2)  16:24+6:4516:25+6:571m--129.958213mNCRNational Highway 91, Uttar Pradesh
6DERDadri (3)  16:32+6:4616:33+6:471m2136.769210mNCR203207, Uttar Pradesh
7AJRAjaibpur (2)  16:41+7:1016:42+7:151m--145.862207mNCRGreater Noida, Uttar Pradesh
8DKDEDankaur (3)  16:50+7:1816:51+7:211m--154.190209mNCRShyam Nagar Mandi, Uttar Pradesh
9WAIRWair (2)  16:57+7:2516:58+7:271m1163.149203mNCRBulandshahr District, Uttar Pradesh
10CHLChola (3)  17:04+7:2917:05+7:291m--168.089204mNCRTahsil Bulandshahar, Uttar Pradesh
11SKQSikandarpur (2)  17:11+7:3417:12+7:311m--176.949199mNCRMDR 70W, Uttar Pradesh
12KRJKhurja Junction (4)  17:19+7:1317:20+7:141m2182.648199mNCRBulandshahr, Uttar Pradesh
13DARDanwar (2)  17:34+7:3317:35+7:381m--193.768198mNCRDanwar, Uttar Pradesh
14SOMSomna (2)  17:44+7:3917:45+7:441m--1104.068195mNCRNational Highway 91, Uttar Pradesh
15KLAKulwa (2)  17:54+7:4517:55+7:451m--1114.151190mNCRAligarh, Uttar Pradesh
16ALJNAligarh Junction (4)  18:09+6:5118:10+6:461m21126.149192mNCRAligarh, Uttar Pradesh
17MXKMandrak (2)  18:27+7:4618:28+7:531m--1139.988190mNCRNational Highway 93, Uttar Pradesh
18SNSSasni (3)  18:33+7:3218:34+7:371m--1147.349185mNCRSasni, Uttar Pradesh
19HRSHathras Junction (3)  18:45+7:3518:50+7:335m11156.271183mNCRMahamaya Nagar(05722-242803), Uttar Pradesh
20JLSJalesar Road (1)  19:07+8:0219:08+8:001m11176.366172mNCRMDR 106W, Uttar Pradesh
21BRNBarhan Junction  19:20+7:4819:21+7:491m--1189.57173mNCRJN Point-Tundle/Aligarh/Etah, Uttar Pradesh
22TDLTundla Junction (5)  21:33+7:0821:43+7:0710m31204.266167mNCRDistt.Firozabad, Uttar Pradesh
23FZDFirozabad (4)  21:58+7:1421:59+7:171m21220.721164mNCRFirozabad, Uttar Pradesh
24SKBShikohabad Junction (4)  22:55+6:2423:00+6:245m21240.658166mNCRDistrict Firozabad, Uttar Pradesh
25JGRJaswantnagar (2)  23:41+6:3123:42+6:321m--1280.025154mNCRJaswantnagar, Uttar Pradesh
26ETWEtawah (5)  00:20+5:4500:25+5:475m32296.085154mNCRDistt. Etawah, Uttar Pradesh
27BNTBharthana (3)  00:39+6:1300:40+6:151m--2315.969147mNCRBharthana, Uttar Pradesh
28ULDAchalda (3)  00:57+6:1600:58+6:171m--2335.463147mNCRDist. Auraiya(05688-1072), Uttar Pradesh
29PHDPhaphund (4)  01:14+6:1501:15+6:181m--2352.229146mNCRdist. Auraiya, Uttar Pradesh
30JJKJhinjhak (3)  01:56+5:5401:57+5:561m22372.052140mNCRAuraiya, Uttar Pradesh
31RURARura (4)  02:19+5:5202:20+5:531m--2391.033137mNCRJhinjhak, Uttar Pradesh
32CNBKanpur Central (10)  03:40+4:5203:50+4:5510m42435.460128mNCRKANPUR-208 001, Uttar Pradesh
33BKOBindki Road  04:36+6:0904:38+6:102m--2481.770124mNCRFatehpur, Uttar Pradesh
34FTPFatehpur (3)  05:05+6:1405:10+6:185m--2513.083120mNCRFatehpur, Uttar Pradesh
35KGAKhaga (3)  05:35+6:0805:40+6:085m--2547.774114mNCRFatehpur, Uttar Pradesh
36SROSirathu (2)  06:00+6:2006:05+6:195m12572.574109mNCRSirathu, Uttar Pradesh
37SJTShujaatpur  06:13+6:0006:18+5:555m--2582.377107mNCRNational Highway 2, Uttar Pradesh
38BREBharwari  06:26+6:3406:28+6:302m--2592.657108mNCRBharwari, Uttar Pradesh
39SYWNSaiyid Sarawan  06:44+6:3206:45+6:331m--2607.916106mNCR212203 ?, Uttar Pradesh
40MREManauri  07:02+6:2807:03+6:291m--2612.558105mNCRSabderganj-Fatehpur Rd, Uttar Pradesh
41SFGSubedarGanj (3)  07:17+6:3207:18+6:461m--2625.97100mNCRAllahabad, Uttar Pradesh
42ALDAllahabad Junction (10)  07:50+6:2108:00+6:3810m62629.747100mNCRAllahabad 211003, Uttar Pradesh
43NYNNaini Junction (4)  08:09+7:3008:11+7:372m12636.84998mNCRAllahabad, Uttar Pradesh
44KCNKarchana  08:24+7:0508:25+7:111m--2647.47294mNCRKarchana, Uttar Pradesh
45MJAMeja Road (4)  08:42+7:4508:43+7:401m--2667.83294mNCRDistrict Allahabad, Uttar Pradesh
46UNDUnchdih  08:58+7:3708:59+7:401m--2675.94494mNCRUnchdih, Uttar Pradesh
47MNFManda Road  09:10+7:3809:15+7:455m--2684.05693mNCRNH 76, Uttar Pradesh
48JIAJigna (1)  09:24+7:4509:25+7:521m12692.35994mNCRNational Highway 76, Uttar Pradesh
49GAEGaipura (4)  09:32+7:5809:33+8:061m--2699.26286mNCRGaipura, Uttar Pradesh
50BDLVindhyachal (3)  09:45+8:2109:46+8:171m22711.51988mNCRMirzapur, Uttar Pradesh
51MZPMirzapur (3)  10:09+7:5010:10+7:461m--2718.94788mNCRMirzapur, Uttar Pradesh
52CARChunar Junction (5)  10:50+8:0410:55+8:055m22750.15785mNCRChunar Junction, Uttar Pradesh
53KYTKailahat (4)  11:05+8:0811:06+8:091m--2759.63283mNCRKailahat, Uttar Pradesh
54ARWAhraura Road (4)  11:22+8:4611:23+8:581m--2768.12285mNCRDist. Mirzapur - 231305, Uttar Pradesh
55MGSMughal Sarai Junction (8)  12:00+6:2012:15+6:0015m22781.95083mECRMughalsarai 232101, Uttar Pradesh
56SLDSakaldiha (2)  12:37+8:5412:38+8:551m--2800.18281mECRState Highway 69, Uttar Pradesh
57ZNAZamania (2)  12:57+5:5312:58+5:531m--2826.15877mECRGhazipur, Uttar Pradesh
58DLNDildarnagar Junction (2)  13:12+4:5113:14+4:522m--2839.67972mECRDildarnagar, Uttar Pradesh
59BWHBhadaura (2)  13:20+7:5413:21+7:551m--2847.55569mECRGhazipur, Uttar Pradesh
60GMRGahmar (2)  13:30+7:5413:31+7:591m--2855.66968mECRDistt: Ghazipur, Uttar Pradesh
61CSAChausa (2)  13:39+5:4213:40+5:431m--2864.96668mECRState Highway 14, Bihar
62BXRBuxar (3)  13:50+5:5613:55+5:565m--2875.88267mECRBuxar, Bihar
63DUREDumraon (3)  14:07+6:1614:08+6:161m--2892.15170mECRDumraon, Bihar
64TWGTwining Ganj  14:17+8:2014:18+8:211m--2899.77270mECRArrah Buxar Rd, Bihar
65RPRRaghunathpur (4)  14:25+6:4114:26+6:421m--2908.15969mECRRaghunathpur, Bihar
66BYNBanahi (2)  14:35+8:2014:36+8:211m--2917.04467mECRBanahi, Bihar
67BEABihiya (3)  14:44+8:2014:45+8:211m--2922.96367mECRBehea, Bihar
68KRSKarisath (2)  14:56+8:1914:57+8:201m--2934.42065mECRKarisath, Bihar
69ARAAra Junction (3)  15:27+6:2715:29+6:272m--2944.39963mECRarrah( 06182-233411), Bihar
70KUAKulharia (2)  15:35+8:0515:36+8:051m--2954.23661mECRChandi Sahar Rd, Bihar
71KWRKoelwar (2)  15:42-15:43-1m--2957.84865mECRNational Highway 30, Bihar
72BTABihta (2)  15:54+6:3215:55+6:321m--2966.53662mECRDistt: Patna, Bihar
73SDESadisopur (2)  16:02-16:03-1m--2970.75364mECRSadisopur, Bihar
74NEONeora (2)  16:11+8:0216:12+8:191m--2977.82061mECRNational Highway 98, Bihar
75DNRDanapur (5)  16:30+8:4916:40+8:4910m--2983.81958mECRKhagaul, Bihar
76PNBEPatna Junction (10)  17:10+6:3817:20+6:3710m--2993.22257mECRPatna 800001, Bihar
77RJPBRajendra Nagar Bihar (4)•  17:27+6:3617:29+6:362m--2995.85155mECRPatna 800001, Bihar
78GZHGulzarbagh (3)  17:34+7:3017:36+7:302m--21000.12655mECRPatna, Bihar
79PNCPatna Saheb (3)  17:43+6:2817:45+6:282m--21003.14659mECRPatna 800008, Bihar
80BKGBanka Ghat (2)  17:53+8:0217:54+8:031m--21009.26156mECRPatna, Bihar
81FUTFatwa (6)  18:00+6:2118:01+6:211m--21015.35653mECRPatna, Bihar
82KOOKhusropur (2)  18:10+7:4118:11+7:411m--21023.85052mECRPatna, Bihar
83KWOKarauta (2)  18:18+7:5718:19+8:241m--21029.63652mECRKarauta, Bihar
84SMBHSalim Pur Bihar  18:23-18:24-1m--21032.03254mECRSalim Pur, Bihar
85TKBGTeka Bigha Halt  18:28-18:29-1m--21034.21751mECRTeka Bigha, Bihar
86BKPBakhtiyarpur Junction (5)18:45+6:2819:05+7:3220m--21038.67751mECRPatna, Bihar
87ATLAthmal Gola (2)  19:12+8:0819:13+8:091m--21047.66852mECRPatna, Bihar
88BARHBarh (3)  19:21+7:5519:22+7:561m--21056.76849mECRBarh, Bihar
89PHKPunarakh (2)  19:31+9:0519:33+9:042m--21066.93251mECRPunarakh, Bihar
90MMKBMemrakhabad (2)  19:38-19:39-1m--21069.63449mECRMor, Bihar
91KNHPKanhaipur (2)  19:43-19:44-1m--21071.93947mECRMor, Bihar
92MORMor (2)  19:49+9:0019:50+9:001m--21075.14946mECRMor, Bihar
93MKAMokama Junction (4)  19:59+9:0220:01+9:042m--21082.54648mECRPatna, Bihar
94ANAHAunta Halt  20:06-20:07-1m--21086.35444mECRPanchmahla, Bihar
95HTZHathidah Junction (2)  20:12+8:1320:13+8:141m121090.81850mECRMusahari, Bihar
96RDUMRampur Dumra (3)  20:26+8:1120:27+8:291m--21094.63346mECRNational Highway 80, Bihar
97BRYABarhiya (3)  20:37+8:2720:38+8:281m--21100.25147mECRBarahiya, Bihar
98DMRXDumri Halt (1)  20:43-20:44-1m121104.53949mECRNational Highway 80, Bihar
99MKBMankatha  20:52+8:2720:53+8:281m--21109.75647mECRNational Highway 80, Bihar
100LKRLuckeesarai Junction (2)  20:59+7:5821:00+7:591m--21115.3852mECRLakhisarai, Bihar
101KIULKiul Junction (5)  21:10+7:5321:12+7:532m--21116.73353mECRDist. Lakhisarai, Bihar
102BSQPBansipur (2)  21:20+8:3621:21+8:371m--21121.02253mECRKiul, Bihar
103MNPMananpur (2)  21:28+8:3621:29+8:371m--21123.66257mECRState Highway 18, Bihar
104BFMBhalui (2)  21:35+8:3621:36+8:361m--21129.810663mECRState Highway 18, Bihar
105JMUJamui (3)  21:44+8:3621:45+8:371m--21143.94681mECRState Highway 72, Bihar
106GHRGidhaur (2)  22:04+8:2922:05+8:301m--21158.534106mECRState Highway 18, Bihar
107JAJJhajha (4)  22:25+8:0222:33+8:048m--21169.966143mECRJhajha, Bihar
108STLSimultala (2)  22:50+8:3022:51+8:301m--21188.666247mERSimultala, Bihar
109JSMEJasidih Junction (5)  23:14+8:1523:19+8:155m--21214.070271mERJasidih, Jharkhand
110MDPMadhupur Junction (4)  23:44+8:2423:52+8:208m--21243.185254mER06432-224478, Jharkhand
111CRJChittaranjan (3)  00:32+9:0800:33+9:091m231299.543182mERMihijam, Jharkhand
112ASNAsansol Junction (7)  01:08+8:4601:18+8:4410m--31324.668113mERDist - Bardhaman, West Bengal
113RNGRaniGanj (4)  01:34+8:4501:35+8:451m--31342.73492mERRaniganj, West Bengal
114UDLAndal Junction (6)  01:48+9:3001:50+9:302m--31350.07386mERAndal, West Bengal
115DGRDurgapur (5)  02:04+7:4602:08+7:464m--31367.05571mERDurgapur, West Bengal
116BWNBarddhaman Junction (8)  03:17+8:0303:27+8:0410m--31430.65434mERDist - Barddhaman, West Bengal
117BDCBandel Junction (7)  04:42+9:1304:47+9:135m--31497.85114mERdist - HOOGHLY, West Bengal
118CGRChandan Nagar (3)  04:55+7:4204:56+7:421m--31504.64716mERDist -HOOGHLY - 712136, West Bengal
119SRPSerampore (4)  05:13+7:2705:14+7:301m--31517.82311mERdist - hooghly, West Bengal
120HWHKolkata Howrah Junction (23)  06:05+7:48-731537.3-10mERHowrah 711101, West Bengal
Scroll to Top
Scroll to Bottom